[[{"header":{"parameterUnit":"m.s-1","parameterCategory":2,"la1":30.2991,"la2":30.254,"lo1":-89.0895,"lo2":-89.0444,"dy":0.0017,"dx":0.0017,"nx":28,"ny":28,"refTime":"2024-03-28T03:00:00:Z","depth":"0","parameterNumber":2,"parameterNumberName":"U-component_of_CURRENTS"},"data":[0,0,0,0,0,0,0,0,0,0,0,0,0,0,0,0,0,0,0,0,0,0,0,0,0,0,0,0,0,0,0,0,0,0,0,0,0,0,0,0,0,0,0,0,0,0,0,0,0,0,0,0,0,0,0,0,0,0,0.2362,0.2364,0,0.2433,0.2434,0.2434,0.244,0.244,0.2439,0.2439,0.243,0.243,0.243,0,0,0,0,0,0,0,0,0,0,0,0,0,0.2263,0.2264,0.2362,0.2364,0.2365,0.2433,0.2434,0.2435,0.244,0.244,0.2439,0.2439,0.243,0.243,0.243,0,0,0,0,0,0,0,0,0,0,0,0,0,0.2314,0.2265,0.2362,0.2378,0.2381,0.2433,0.2434,0.2435,0.2441,0.244,0.2439,0.2439,0.243,0.243,0.243,0.2446,0,0,0.2431,0.2431,0,0,0,0,0,0,0,0,0.2311,0.2317,0.2375,0.2377,0.238,0.243,0.2396,0.2436,0.2441,0.2414,0.2439,0.2438,0.2425,0.2426,0.2437,0.2445,0.2445,0.2431,0.2431,0.2432,0.2432,0,0,0,0,0,0,0,0.2308,0.2314,0.2387,0.2376,0.238,0.2393,0.2399,0.2404,0.2419,0.2417,0.2418,0.2431,0.2426,0.2437,0.2437,0.2445,0.2431,0.2431,0.2432,0.2432,0.2504,0.2505,0,0,0,0,0,0,0.2305,0.2311,0.2385,0.239,0.2347,0.2396,0.2402,0.2412,0.242,0.2423,0.2432,0.2432,0.2437,0.2437,0.2436,0.2477,0.2432,0.2432,0.2432,0.2502,0.2504,0.2506,0,0,0,0,0,0,0.2303,0.2311,0.2382,0.2355,0.2365,0.2398,0.241,0.2414,0.2431,0.2434,0.2433,0.2445,0.2436,0.2436,0.2457,0.2475,0.2432,0.2432,0.25,0.2503,0.2505,0.2543,0,0,0,0,0,0,0.2299,0.2309,0.2316,0.2354,0.2367,0.2422,0.2411,0.2416,0.2442,0.2442,0.2445,0.2443,0.2436,0.2457,0.2457,0.2475,0.2432,0.2498,0.2501,0.2504,0.2539,0.2547,0.2553,0,0,0,0,0,0.2295,0.2308,0.2316,0.2325,0.2375,0.2423,0.2431,0.2449,0.2443,0.2459,0.2465,0.2443,0.2478,0.2459,0.2459,0.2477,0.2496,0.25,0.2504,0.2537,0.2545,0.2552,0,0,0,0,0,0,0.2259,0.2311,0.232,0.2345,0.2386,0.2426,0.2444,0.2456,0.2475,0.247,0.2464,0.2464,0.2494,0.2484,0.2463,0.2511,0.2484,0.2489,0.2509,0.2517,0.2524,0.2518,0.2433,0,0,0,0,0,0.2258,0.2284,0.2333,0.2353,0.2375,0.241,0.2431,0.2448,0.2472,0.2479,0.2483,0.2491,0.2512,0.2512,0.2529,0.2546,0.2569,0.2561,0.2568,0.2573,0.2571,0.2624,0.2635,0.2519,0.2519,0.2519,0,0,0.2245,0.2281,0.2292,0.2348,0.2378,0.2416,0.242,0.2459,0.2485,0.2474,0.2503,0.2518,0.2526,0.2556,0.2567,0.2545,0.2627,0.2578,0.2582,0.2577,0.263,0.2641,0.2651,0.2522,0.2521,0.2521,0,0,0.2243,0.2271,0.2296,0.2336,0.2393,0.2422,0.2436,0.2484,0.25,0.2535,0.2541,0.2567,0.2586,0.2601,0.2608,0.2661,0.2668,0.2668,0.2682,0.2735,0.2744,0.2753,0.283,0.2845,0.266,0.266,0.266,0,0.2224,0.2268,0.231,0.235,0.2381,0.2425,0.2458,0.249,0.2536,0.2551,0.2547,0.2604,0.2608,0.2649,0.2669,0.2673,0.2714,0.2648,0.2742,0.2751,0.2759,0.2835,0.2851,0.2662,0.2662,0.2662,0.2661,0,0.2251,0.2285,0.2305,0.237,0.2408,0.2447,0.25,0.2533,0.2555,0.2583,0.2633,0.2654,0.2684,0.2696,0.2695,0.2757,0.2775,0.2752,0.2718,0.2773,0.2851,0.2867,0.2665,0.2665,0.2664,0.2663,0,0,0.221,0.2304,0.2311,0.2345,0.2423,0.2459,0.2505,0.2563,0.2605,0.2636,0.2685,0.2718,0.2733,0.2745,0.2757,0.2793,0.2897,0.2796,0.2797,0.2865,0.3043,0.3045,0.3063,0.2892,0.2895,0.2896,0.3086,0,0.2218,0.2287,0.2332,0.2392,0.2434,0.2487,0.2535,0.2588,0.2637,0.2699,0.2721,0.2783,0.2752,0.2788,0.2815,0.289,0.2936,0.2849,0.2985,0.2989,0.2978,0.308,0.2977,0.3135,0.3101,0.3104,0.3106,0,0.2236,0.2282,0.2336,0.2421,0.2443,0.2481,0.2569,0.2624,0.271,0.2748,0.2793,0.2833,0.2905,0.2871,0.2996,0.2947,0.2994,0.3037,0.3044,0.3038,0.302,0.3069,0.3165,0.3087,0.313,0.3129,0.3127,0,0.2207,0.2288,0.233,0.2359,0.2456,0.2483,0.2539,0.2629,0.2684,0.2795,0.2854,0.2925,0.2997,0.305,0.3132,0.3082,0.328,0.3221,0.3266,0.3268,0.3201,0.3192,0.3224,0.3302,0.3301,0.3301,0.33,0,0.2213,0.2249,0.2319,0.2347,0.2398,0.2475,0.2542,0.2615,0.2721,0.2791,0.2881,0.2956,0.3047,0.3159,0.3192,0.3305,0.3333,0.33,0.3321,0.3216,0.3207,0.3149,0.3108,0.3308,0.3306,0.3305,0.3303,0,0.2186,0.2236,0.2284,0.2365,0.2388,0.2429,0.2529,0.2583,0.2708,0.2808,0.2853,0.302,0.3179,0.3278,0.3416,0.341,0.3417,0.3523,0.3411,0.3414,0.3337,0.3302,0.3232,0.3138,0.3602,0.3603,0.3604,0,0.2186,0.2207,0.2271,0.2291,0.2325,0.2387,0.2428,0.255,0.261,0.2829,0.2873,0.3089,0.3199,0.3443,0.3509,0.3623,0.348,0.3575,0.3435,0.335,0.3328,0.3153,0.3064,0.3385,0.3384,0.3383,0.3383,0,0.2182,0.2194,0.2232,0.2258,0.2291,0.2326,0.2398,0.2437,0.2591,0.2704,0.2875,0.3003,0.3262,0.3362,0.3544,0.3573,0.3404,0.3563,0.3496,0.3188,0.2978,0.2892,0.3265,0.3376,0.3377,0.3377,0.3378,0.3378,0.2168,0.2173,0.2208,0.2232,0.2257,0.2268,0.2271,0.2356,0.2452,0.2613,0.2795,0.2962,0.3188,0.3432,0.3444,0.3433,0.3374,0.3344,0.3327,0.3171,0.3006,0.3383,0.3492,0.3494,0.3495,0.3496,0.3496,0,0.2147,0.2155,0.218,0.2189,0.2179,0.2213,0.2247,0.2244,0.2308,0.2499,0.2658,0.2915,0.3049,0.3182,0.3298,0.3224,0.3021,0.3146,0.2864,0.2801,0.3178,0.3092,0.3092,0.3092,0.3092,0.3092,0.3092,0.3092,0.2138,0.2146,0.2153,0.2124,0.2111,0.207,0.2066,0.2085,0.2178,0.2333,0.2479,0.2661,0.2941,0.3136,0.311,0.3036,0.2792,0.2687,0.2659,0.2929,0.2944,0.2958,0.2865,0.2818,0.2818,0.2137,0.2133,0.2129]},{"header":{"parameterUnit":"m.s-1","parameterCategory":2,"la1":30.2991,"la2":30.254,"lo1":-89.0895,"lo2":-89.0444,"dy":0.0017,"dx":0.0017,"nx":28,"ny":28,"refTime":"2024-03-28T03:00:00:Z","depth":"0","parameterNumber":3,"parameterNumberName":"V-component_of_CURRENTS"},"data":[0,0,0,0,0,0,0,0,0,0,0,0,0,0,0,0,0,0,0,0,0,0,0,0,0,0,0,0,0,0,0,0,0,0,0,0,0,0,0,0,0,0,0,0,0,0,0,0,0,0,0,0,0,0,0,0,0,0,0.0187,0.0186,0,0.0136,0.0136,0.0135,0.0092,0.0092,0.0091,0.0091,-0.0034,-0.0037,-0.004,0,0,0,0,0,0,0,0,0,0,0,0,0,0.022,0.022,0.0187,0.0186,0.0186,0.0137,0.0136,0.0135,0.0092,0.0092,0.0091,0.0091,-0.0033,-0.0036,-0.004,0,0,0,0,0,0,0,0,0,0,0,0,0,0.0191,0.022,0.0187,0.0159,0.0156,0.0137,0.0136,0.0135,0.0092,0.0092,0.0091,0.009,-0.0032,-0.0036,-0.004,-0.0054,0,0,-0.0054,-0.0056,0,0,0,0,0,0,0,0,0.0193,0.019,0.0163,0.0161,0.0157,0.012,0.0102,0.0068,0.0093,0.0116,0.0091,0.009,0.0011,0.0003,-0.0004,-0.0059,-0.0065,-0.0054,-0.0057,-0.0059,-0.006,0,0,0,0,0,0,0,0.0195,0.0192,0.0167,0.0163,0.0159,0.014,0.0135,0.0095,0.0067,0.0114,0.0111,0.0106,0.0009,0.0001,-0.0007,-0.0067,-0.0054,-0.0058,-0.006,-0.0062,-0.0141,-0.014,0,0,0,0,0,0,0.0204,0.0194,0.0168,0.0165,0.0174,0.014,0.0134,0.0133,0.0069,0.0059,0.0107,0.0104,0.0008,-0.0002,-0.0012,-0.0032,-0.0058,-0.0063,-0.0065,-0.0141,-0.014,-0.014,0,0,0,0,0,0,0.0205,0.0202,0.017,0.0178,0.0173,0.014,0.0138,0.0132,0.0123,0.0064,0.0052,0.0103,0.0007,-0.0006,-0.0038,-0.0037,-0.0065,-0.0068,-0.0142,-0.0141,-0.014,-0.0071,0,0,0,0,0,0,0.0206,0.0203,0.0206,0.0179,0.0173,0.0167,0.0139,0.0131,0.0121,0.0117,0.0057,0.0045,0.0006,-0.0031,-0.0043,-0.0043,-0.0072,-0.0142,-0.0141,-0.014,-0.0074,-0.0068,-0.0063,0,0,0,0,0,0.0208,0.022,0.0206,0.0203,0.0177,0.0168,0.0164,0.0137,0.0121,0.0125,0.0086,0.0047,-0.0033,-0.0034,-0.0048,-0.005,-0.0143,-0.0142,-0.014,-0.0077,-0.0069,-0.0063,0,0,0,0,0,0,0.0234,0.0216,0.02,0.0205,0.019,0.0161,0.0162,0.0143,0.0116,0.011,0.0053,0.0039,0.001,-0.0025,-0.0025,-0.0068,-0.0095,-0.0096,-0.0041,-0.0035,-0.003,-0.0022,-0.0075,0,0,0,0,0,0.0242,0.0247,0.0222,0.0226,0.0221,0.0192,0.0184,0.0168,0.014,0.0128,0.0087,0.0044,0.0006,-0.0018,-0.0054,-0.0079,-0.0105,-0.0088,-0.0083,-0.0078,-0.008,-0.0114,-0.0111,-0.0136,-0.0136,-0.0136,0,0,0.0251,0.0243,0.0244,0.0232,0.0218,0.0217,0.0186,0.0182,0.0177,0.0117,0.01,0.0061,0.0005,-0.0019,-0.0036,-0.0051,-0.0079,-0.0076,-0.0071,-0.0077,-0.0112,-0.011,-0.0108,-0.0135,-0.0135,-0.0135,0,0,0.0278,0.0268,0.0281,0.0273,0.0259,0.0241,0.0242,0.0218,0.0203,0.0185,0.0139,0.0106,0.0052,0.0012,-0.0016,-0.0003,-0.0046,-0.0014,0.0014,-0.0018,-0.0016,-0.0015,-0.0021,-0.0021,-0.0014,-0.0013,-0.0013,0,0.0287,0.03,0.0283,0.0293,0.0288,0.0255,0.0264,0.0247,0.0214,0.0203,0.0189,0.0111,0.0066,0.0023,0.003,0.0008,-0.0007,-0.0006,-0.001,-0.001,-0.001,-0.0017,-0.0018,-0.001,-0.001,-0.0011,-0.0011,0,0.0322,0.0329,0.0339,0.0337,0.0332,0.0337,0.031,0.0303,0.0281,0.0258,0.0222,0.0165,0.012,0.0099,0.0066,0.004,0.0033,0.0004,-0.0025,-0.0004,-0.0012,-0.0014,-0.0005,-0.0006,-0.0007,-0.0008,0,0,0.0345,0.036,0.0362,0.037,0.0355,0.0357,0.0351,0.0335,0.0341,0.0295,0.0294,0.0217,0.019,0.0156,0.0108,0.0072,0.0066,0.0044,0.004,0.0042,0.0018,0.0032,0.003,0.0038,0.0037,0.0037,0.0022,0,0.0373,0.0408,0.04,0.0423,0.0437,0.0409,0.0413,0.0394,0.0375,0.0371,0.0299,0.0285,0.0211,0.0206,0.0152,0.0096,0.0059,0.0074,-0.0008,-0.001,0.0002,0.0027,0.0017,0.0003,0.0019,0.0019,0.0018,0,0.0406,0.0426,0.0459,0.0476,0.0479,0.049,0.0494,0.0494,0.0471,0.0461,0.0417,0.0375,0.0318,0.0263,0.0151,0.0167,0.0096,0.0041,0.0038,0.0022,-0.0001,-0.0022,-0.0002,-0.0177,0.0014,0.0014,0.0015,0,0.044,0.0464,0.0495,0.0499,0.0513,0.0527,0.0535,0.0525,0.0556,0.0532,0.057,0.0461,0.0465,0.0331,0.0222,0.0189,0.0115,0.0056,-0.0006,-0.0005,-0.0047,-0.0048,-0.0206,-0.0031,-0.0031,-0.0031,-0.0031,0,0.0475,0.05,0.0521,0.0541,0.0593,0.0579,0.064,0.0631,0.0662,0.0736,0.0632,0.0686,0.0486,0.0424,0.0269,0.0149,0.0151,0.0007,-0.0011,-0.0019,-0.0018,-0.0199,-0.0288,-0.0032,-0.0032,-0.0032,-0.0032,0,0.0515,0.0524,0.0569,0.0597,0.0616,0.0659,0.0741,0.0796,0.0808,0.091,0.0923,0.0878,0.0804,0.0603,0.0425,0.026,0.0016,0.0061,0.0082,0.0066,-0.0178,-0.0261,-0.0411,-0.0492,-0.0025,-0.0025,-0.0025,0,0.0543,0.057,0.0624,0.0674,0.0699,0.0771,0.0838,0.0869,0.0956,0.1053,0.1129,0.1089,0.1104,0.084,0.0522,0.0249,0.0066,0.0056,-0.003,-0.0186,-0.0292,-0.0351,-0.0414,-0.005,-0.005,-0.005,-0.005,0,0.061,0.0627,0.0674,0.0779,0.0859,0.0954,0.1063,0.116,0.1236,0.1333,0.1477,0.1497,0.1251,0.0984,0.0594,0.0377,-0.0068,0.0048,-0.0137,-0.034,-0.0393,-0.048,-0.0028,-0.0051,-0.0051,-0.0051,-0.0051,-0.0051,0.0673,0.0729,0.0808,0.0911,0.1009,0.1161,0.1275,0.1408,0.1579,0.1758,0.1749,0.1802,0.1377,0.0847,0.0542,-0.0055,-0.0052,-0.0254,-0.0341,-0.0386,-0.0475,-0.0001,-0.003,-0.003,-0.003,-0.0029,-0.0029,0,0.0766,0.0843,0.0945,0.1088,0.1222,0.1247,0.1447,0.1578,0.1808,0.1936,0.2051,0.1848,0.1346,0.0791,0.0008,-0.0384,-0.055,-0.0605,-0.073,-0.0778,-0.0384,-0.0398,-0.0479,-0.0479,-0.0479,-0.0479,-0.0479,-0.0478,0.0832,0.0958,0.1017,0.1269,0.1367,0.1568,0.1694,0.1873,0.2,0.2167,0.2165,0.2137,0.1689,0.0353,-0.0572,-0.0794,-0.1052,-0.1098,-0.1221,-0.1,-0.0975,-0.0952,-0.0989,-0.1192,-0.1193,-0.1593,-0.1598,-0.1601]}],[{"header":{"parameterUnit":"m.s-1","parameterCategory":2,"la1":30.2991,"la2":30.254,"lo1":-89.0895,"lo2":-89.0444,"dy":0.0017,"dx":0.0017,"nx":28,"ny":28,"refTime":"2024-03-28T03:00:00:Z","depth":"2","parameterNumber":2,"parameterNumberName":"U-component_of_CURRENTS"},"data":[0,0,0,0,0,0,0,0,0,0,0,0,0,0,0,0,0,0,0,0,0,0,0,0,0,0,0,0,0,0,0,0,0,0,0,0,0,0,0,0,0,0,0,0,0,0,0,0,0,0,0,0,0,0,0,0,0,0,0.2127,0.2128,0,0.2181,0.2182,0.2182,0.22,0.22,0.22,0.22,0.2214,0.2215,0.2215,0,0,0,0,0,0,0,0,0,0,0,0,0,0.2046,0.2047,0.2127,0.2128,0.2129,0.2181,0.2182,0.2182,0.22,0.22,0.22,0.22,0.2214,0.2215,0.2215,0,0,0,0,0,0,0,0,0,0,0,0,0,0.2086,0.2048,0.2127,0.2146,0.2149,0.2181,0.2182,0.2182,0.22,0.22,0.22,0.22,0.2214,0.2215,0.2215,0.2217,0,0,0.2217,0.2217,0,0,0,0,0,0,0,0,0.2084,0.2089,0.2142,0.2145,0.2148,0.2187,0.2159,0.2193,0.22,0.2177,0.22,0.22,0.2203,0.2205,0.2211,0.2218,0.2218,0.2217,0.2217,0.2217,0.2217,0,0,0,0,0,0,0,0.2081,0.2086,0.2145,0.2144,0.2147,0.2155,0.216,0.2165,0.2186,0.2179,0.2181,0.2192,0.2204,0.221,0.2211,0.2219,0.2217,0.2217,0.2218,0.2218,0.2286,0.2287,0,0,0,0,0,0,0.208,0.2084,0.2144,0.2147,0.2119,0.2157,0.2163,0.2171,0.2187,0.2191,0.2192,0.2193,0.2209,0.2211,0.2212,0.2266,0.2217,0.2218,0.2218,0.2284,0.2286,0.2288,0,0,0,0,0,0,0.2078,0.2085,0.2142,0.2119,0.2128,0.2158,0.2168,0.2173,0.2192,0.2198,0.22,0.2209,0.221,0.2211,0.2235,0.2264,0.2218,0.2219,0.2283,0.2285,0.2287,0.2341,0,0,0,0,0,0,0.2076,0.2084,0.2093,0.2119,0.2129,0.217,0.2169,0.2174,0.22,0.2201,0.2213,0.2214,0.221,0.2235,0.2236,0.2264,0.2219,0.2281,0.2284,0.2286,0.2337,0.2344,0.2351,0,0,0,0,0,0.2073,0.2085,0.2092,0.21,0.2139,0.2171,0.2176,0.2196,0.2201,0.2213,0.2226,0.2214,0.2253,0.2236,0.2237,0.2266,0.2279,0.2283,0.2286,0.2334,0.2343,0.2351,0,0,0,0,0,0,0.205,0.2089,0.2098,0.212,0.2148,0.2175,0.2194,0.2204,0.2225,0.223,0.2229,0.2231,0.2271,0.2259,0.224,0.2296,0.2266,0.227,0.2302,0.2311,0.2317,0.2315,0.2219,0,0,0,0,0,0.2051,0.2072,0.2106,0.2124,0.2143,0.217,0.2187,0.2202,0.2224,0.2233,0.2247,0.2262,0.2284,0.2288,0.2307,0.2326,0.2339,0.2348,0.2355,0.2361,0.2361,0.2396,0.2406,0.2299,0.2299,0.2299,0,0,0.2043,0.2072,0.2081,0.2122,0.2148,0.2179,0.2181,0.2215,0.2239,0.2231,0.2273,0.2292,0.2298,0.2334,0.2348,0.2325,0.2407,0.2365,0.237,0.2367,0.2401,0.2411,0.242,0.2301,0.2301,0.23,0,0,0.2047,0.2072,0.2094,0.2124,0.2171,0.2191,0.2205,0.2245,0.2264,0.2298,0.2314,0.2345,0.2368,0.2386,0.2393,0.2445,0.2451,0.2458,0.2479,0.2513,0.2522,0.253,0.2595,0.2607,0.2449,0.2449,0.2449,0,0.2037,0.2073,0.2104,0.2139,0.2168,0.22,0.2231,0.2256,0.2299,0.2321,0.2317,0.2387,0.2391,0.2439,0.246,0.246,0.2492,0.2445,0.2522,0.253,0.2537,0.2601,0.2614,0.2452,0.2452,0.2451,0.2451,0,0.2058,0.2093,0.2114,0.2169,0.22,0.2236,0.2278,0.2314,0.2339,0.2364,0.2427,0.2443,0.2481,0.2494,0.2488,0.2551,0.2566,0.2537,0.2499,0.2551,0.2615,0.2629,0.2456,0.2455,0.2454,0.2454,0,0,0.2025,0.211,0.2119,0.2158,0.2223,0.2254,0.2302,0.2356,0.2401,0.2435,0.2491,0.2528,0.2548,0.2558,0.2572,0.2594,0.2679,0.2587,0.2587,0.2648,0.2791,0.2743,0.2753,0.2667,0.2669,0.267,0.2829,0,0.2036,0.21,0.2141,0.2208,0.2249,0.2299,0.2343,0.2395,0.2441,0.2504,0.253,0.2593,0.2569,0.2607,0.2624,0.2672,0.2712,0.2641,0.2734,0.2737,0.2684,0.2765,0.2552,0.2669,0.2842,0.2844,0.2845,0,0.2051,0.2094,0.2153,0.2246,0.2269,0.2309,0.24,0.2447,0.2529,0.2565,0.262,0.2657,0.272,0.2684,0.2777,0.2738,0.2772,0.2795,0.2801,0.274,0.2711,0.2638,0.2686,0.2867,0.2866,0.2864,0.2863,0,0.2028,0.2114,0.2163,0.2193,0.2287,0.2326,0.238,0.2464,0.2517,0.262,0.2672,0.2741,0.2799,0.2835,0.2886,0.2846,0.2989,0.2934,0.293,0.2929,0.2755,0.2734,0.3003,0.3003,0.3002,0.3002,0.3001,0,0.2038,0.208,0.2158,0.2189,0.2248,0.2324,0.2401,0.2464,0.2564,0.263,0.2708,0.2773,0.2838,0.2921,0.2938,0.2991,0.3036,0.2959,0.2966,0.2772,0.2752,0.2911,0.2898,0.3008,0.3007,0.3005,0.3004,0,0.2013,0.2066,0.2124,0.2213,0.2242,0.2286,0.24,0.2451,0.2564,0.2656,0.2697,0.283,0.294,0.3014,0.3106,0.3068,0.3116,0.3124,0.2913,0.289,0.3024,0.3013,0.3132,0.3131,0.3131,0.3131,0.313,0,0.2014,0.2042,0.2119,0.2145,0.2187,0.2262,0.2302,0.2422,0.2478,0.2673,0.2703,0.2876,0.2943,0.3088,0.309,0.3147,0.3174,0.2964,0.2821,0.3043,0.3038,0.3026,0.3016,0.2639,0.2634,0.2631,0.2628,0,0.2021,0.2042,0.2083,0.211,0.2152,0.2201,0.2278,0.2313,0.2456,0.2557,0.2692,0.2781,0.2928,0.2889,0.2976,0.2961,0.2928,0.2893,0.3196,0.2626,0.2587,0.2579,0.2582,0.2597,0.26,0.2603,0.2604,0.2605,0.2016,0.2023,0.2065,0.2085,0.2122,0.2139,0.2151,0.2228,0.2313,0.2417,0.2559,0.2618,0.2684,0.2697,0.2654,0.2637,0.2812,0.2677,0.2684,0.2696,0.2597,0.2557,0.2547,0.255,0.2552,0.2554,0.2556,0,0.1993,0.2012,0.2042,0.2061,0.2074,0.2103,0.213,0.2118,0.2165,0.2264,0.2354,0.2216,0.2233,0.231,0.224,0.2253,0.219,0.2163,0.2057,0.2093,0.2124,0.1989,0.1782,0.1779,0.1776,0.1774,0,0,0.1983,0.1994,0.1997,0.2019,0.2027,0.2003,0.1989,0.1955,0.1992,0.1951,0.1961,0.2129,0.2253,0.1976,0.1968,0.1865,0.1951,0.1798,0.2432,0.2346,0.2372,0.2451,0.2291,0,0,0,0,0]},{"header":{"parameterUnit":"m.s-1","parameterCategory":2,"la1":30.2991,"la2":30.254,"lo1":-89.0895,"lo2":-89.0444,"dy":0.0017,"dx":0.0017,"nx":28,"ny":28,"refTime":"2024-03-28T03:00:00:Z","depth":"2","parameterNumber":3,"parameterNumberName":"V-component_of_CURRENTS"},"data":[0,0,0,0,0,0,0,0,0,0,0,0,0,0,0,0,0,0,0,0,0,0,0,0,0,0,0,0,0,0,0,0,0,0,0,0,0,0,0,0,0,0,0,0,0,0,0,0,0,0,0,0,0,0,0,0,0,0,-0.0045,-0.0046,0,-0.009,-0.009,-0.0091,-0.0121,-0.0122,-0.0122,-0.0122,-0.0225,-0.0228,-0.023,0,0,0,0,0,0,0,0,0,0,0,0,0,-0.0013,-0.0014,-0.0045,-0.0046,-0.0046,-0.0089,-0.009,-0.0091,-0.0121,-0.0122,-0.0122,-0.0122,-0.0225,-0.0228,-0.0231,0,0,0,0,0,0,0,0,0,0,0,0,0,-0.004,-0.0014,-0.0045,-0.0066,-0.0069,-0.0089,-0.009,-0.0091,-0.0121,-0.0122,-0.0122,-0.0122,-0.0224,-0.0227,-0.0231,-0.0248,0,0,-0.0243,-0.0244,0,0,0,0,0,0,0,0,-0.0038,-0.0041,-0.0063,-0.0065,-0.0068,-0.01,-0.0117,-0.0146,-0.0121,-0.0102,-0.0122,-0.0122,-0.0189,-0.0195,-0.0202,-0.0253,-0.0258,-0.0243,-0.0245,-0.0247,-0.0248,0,0,0,0,0,0,0,-0.0036,-0.0039,-0.0063,-0.0063,-0.0066,-0.0083,-0.0087,-0.0123,-0.0144,-0.0103,-0.0106,-0.011,-0.0191,-0.0199,-0.0205,-0.0259,-0.0243,-0.0246,-0.0249,-0.025,-0.033,-0.033,0,0,0,0,0,0,-0.0029,-0.0037,-0.0061,-0.0064,-0.0053,-0.0083,-0.0088,-0.009,-0.0142,-0.015,-0.011,-0.0111,-0.0192,-0.0201,-0.0209,-0.0221,-0.0247,-0.0251,-0.0253,-0.033,-0.033,-0.033,0,0,0,0,0,0,-0.0028,-0.003,-0.006,-0.0052,-0.0057,-0.0083,-0.0085,-0.009,-0.0097,-0.0147,-0.0156,-0.0112,-0.0192,-0.0204,-0.0235,-0.0226,-0.0252,-0.0256,-0.0331,-0.033,-0.033,-0.0253,0,0,0,0,0,0,-0.0026,-0.0029,-0.0026,-0.0051,-0.0057,-0.0065,-0.0085,-0.0091,-0.01,-0.0102,-0.0151,-0.0161,-0.0194,-0.0229,-0.0239,-0.0232,-0.0259,-0.0331,-0.033,-0.033,-0.0256,-0.0251,-0.0246,0,0,0,0,0,-0.0025,-0.0013,-0.0026,-0.0029,-0.0052,-0.0065,-0.0069,-0.0089,-0.0099,-0.0098,-0.0131,-0.016,-0.0234,-0.0232,-0.0244,-0.0237,-0.0331,-0.033,-0.033,-0.0258,-0.0252,-0.0246,0,0,0,0,0,0,0.0005,-0.0016,-0.003,-0.0025,-0.0043,-0.0069,-0.0066,-0.0085,-0.0109,-0.011,-0.0159,-0.0171,-0.0194,-0.0229,-0.0225,-0.026,-0.0287,-0.0289,-0.0229,-0.0223,-0.0218,-0.0201,-0.0262,0,0,0,0,0,0.0012,0.0013,-0.0012,-0.0009,-0.0013,-0.004,-0.0047,-0.0061,-0.0087,-0.0097,-0.013,-0.0168,-0.0201,-0.0221,-0.0254,-0.0276,-0.0305,-0.028,-0.0275,-0.027,-0.0265,-0.0302,-0.0299,-0.0329,-0.0329,-0.0329,0,0,0.0023,0.0013,0.0012,-0.0003,-0.0015,-0.0013,-0.0045,-0.0048,-0.0049,-0.0106,-0.0113,-0.015,-0.0203,-0.0222,-0.0236,-0.025,-0.0275,-0.0269,-0.0265,-0.0263,-0.0301,-0.0298,-0.0295,-0.0328,-0.0328,-0.0328,0,0,0.0053,0.004,0.0053,0.0043,0.0029,0.0012,0.0013,-0.001,-0.0021,-0.0039,-0.0076,-0.0107,-0.0157,-0.0189,-0.0215,-0.0204,-0.0244,-0.0214,-0.0177,-0.0212,-0.021,-0.0208,-0.0229,-0.023,-0.0213,-0.0213,-0.0213,0,0.0067,0.0079,0.0054,0.0066,0.0065,0.0027,0.0042,0.0024,-0.0006,-0.0012,-0.0031,-0.0096,-0.0142,-0.0171,-0.0166,-0.0192,-0.0212,-0.0193,-0.0204,-0.0203,-0.0203,-0.0224,-0.0226,-0.0209,-0.021,-0.021,-0.0211,0,0.0104,0.0115,0.0125,0.0126,0.012,0.0128,0.0101,0.0097,0.0075,0.0052,0.0025,-0.0035,-0.0072,-0.0094,-0.0129,-0.0146,-0.0161,-0.0189,-0.0215,-0.0195,-0.0219,-0.0223,-0.0204,-0.0205,-0.0206,-0.0207,0,0,0.0133,0.0149,0.0152,0.0167,0.0154,0.0156,0.0158,0.0148,0.0156,0.0112,0.0115,0.0045,0.0016,-0.0016,-0.0064,-0.0101,-0.0117,-0.0137,-0.0141,-0.0148,-0.018,-0.0209,-0.0216,-0.0143,-0.0144,-0.0144,-0.0193,0,0.017,0.0213,0.0204,0.0239,0.026,0.0232,0.024,0.0224,0.0202,0.0196,0.0127,0.0109,0.0044,0.0034,-0.0015,-0.009,-0.0124,-0.01,-0.0207,-0.021,-0.0231,-0.0221,-0.0187,-0.0229,-0.0196,-0.0197,-0.0197,0,0.0209,0.0234,0.0281,0.0307,0.0313,0.0327,0.0338,0.0339,0.0313,0.0298,0.0261,0.021,0.0151,0.0096,-0.0026,-0.0005,-0.0081,-0.0146,-0.015,-0.0208,-0.0246,-0.0249,-0.0237,-0.0204,-0.0203,-0.0203,-0.0202,0,0.0248,0.0286,0.0329,0.0336,0.0357,0.0377,0.0387,0.0377,0.0399,0.0371,0.0389,0.0293,0.027,0.0149,0.0013,-0.0002,-0.0116,-0.0158,-0.0256,-0.0259,-0.0268,-0.0271,-0.0237,-0.0237,-0.0237,-0.0237,-0.0237,0,0.0292,0.0325,0.0357,0.0381,0.0439,0.0431,0.049,0.0482,0.0499,0.0546,0.0453,0.0466,0.0284,0.0196,0.0051,-0.0107,-0.0089,-0.0246,-0.0276,-0.024,-0.0239,-0.0252,-0.0253,-0.0239,-0.0238,-0.0238,-0.0238,0,0.0328,0.0347,0.0401,0.0442,0.0463,0.0505,0.0578,0.0618,0.0623,0.0686,0.0689,0.0605,0.0484,0.0299,0.0108,-0.0039,-0.02,-0.0257,-0.0196,-0.0219,-0.0329,-0.0325,-0.038,-0.0382,-0.0383,-0.0384,-0.0385,0,0.0351,0.0384,0.0453,0.0501,0.0527,0.0597,0.0651,0.0679,0.0736,0.0778,0.0815,0.0725,0.0657,0.0357,0.0089,-0.0169,-0.0195,-0.0302,-0.0343,-0.0321,-0.0344,-0.0339,-0.0334,-0.0316,-0.0317,-0.0317,-0.0317,0,0.0402,0.0426,0.0473,0.0568,0.0638,0.0724,0.081,0.0872,0.0921,0.0975,0.1014,0.0961,0.0683,0.0413,0.0059,-0.0116,-0.0268,-0.0316,-0.0303,-0.029,-0.0266,-0.0287,-0.0283,-0.0319,-0.0319,-0.0318,-0.0318,-0.0318,0.0436,0.048,0.0551,0.0636,0.073,0.084,0.0916,0.1005,0.1105,0.1176,0.1131,0.1066,0.0769,0.03,0.0009,-0.0283,-0.029,-0.0393,-0.039,-0.0387,-0.0376,-0.0356,-0.0423,-0.0423,-0.0423,-0.0424,-0.0424,0,0.0469,0.053,0.0617,0.0736,0.0849,0.0881,0.1015,0.1075,0.119,0.1253,0.1261,0.0967,0.0678,0.0365,-0.0071,-0.036,-0.0375,-0.0436,-0.0382,-0.0379,-0.0376,-0.0363,-0.0407,-0.0408,-0.0408,-0.0409,0,0,0.0489,0.0571,0.0611,0.0809,0.0901,0.1049,0.1114,0.1181,0.1247,0.1258,0.1243,0.1153,0.0781,0.047,0.0093,-0.0141,-0.0195,-0.0195,-0.018,-0.0069,-0.0063,-0.0328,-0.0301,0,0,0,0,0]}],[{"header":{"parameterUnit":"m.s-1","parameterCategory":2,"la1":30.2991,"la2":30.254,"lo1":-89.0895,"lo2":-89.0444,"dy":0.0017,"dx":0.0017,"nx":28,"ny":28,"refTime":"2024-03-28T03:00:00:Z","depth":"4","parameterNumber":2,"parameterNumberName":"U-component_of_CURRENTS"},"data":[0,0,0,0,0,0,0,0,0,0,0,0,0,0,0,0,0,0,0,0,0,0,0,0,0,0,0,0,0,0,0,0,0,0,0,0,0,0,0,0,0,0,0,0,0,0,0,0,0,0,0,0,0,0,0,0,0,0,0.1298,0.1299,0,0.1334,0.1335,0.1335,0.1389,0.139,0.1391,0.1392,0.1467,0.1468,0.1469,0,0,0,0,0,0,0,0,0,0,0,0,0,0.1253,0.1254,0.1298,0.1299,0.1299,0.1334,0.1335,0.1335,0.1389,0.139,0.1391,0.1393,0.1467,0.1468,0.1469,0,0,0,0,0,0,0,0,0,0,0,0,0,0.1278,0.1254,0.1298,0.1331,0.1335,0.1334,0.1335,0.1335,0.1389,0.139,0.1392,0.1393,0.1466,0.1468,0.1469,0.1446,0,0,0.1474,0.1474,0,0,0,0,0,0,0,0,0.1277,0.128,0.1326,0.1329,0.1333,0.136,0.1346,0.1375,0.1388,0.1367,0.1392,0.1394,0.1434,0.1438,0.1439,0.145,0.1453,0.1474,0.1475,0.1475,0.1476,0,0,0,0,0,0,0,0.1275,0.1278,0.1311,0.1326,0.1331,0.1337,0.1342,0.1351,0.1391,0.1369,0.1373,0.1378,0.1437,0.1438,0.1442,0.1454,0.1474,0.1475,0.1476,0.1477,0.1557,0.1558,0,0,0,0,0,0,0.1272,0.1277,0.131,0.1313,0.131,0.1336,0.1342,0.1349,0.139,0.1398,0.1377,0.1381,0.1434,0.144,0.1445,0.152,0.1475,0.1477,0.1478,0.1555,0.1557,0.1558,0,0,0,0,0,0,0.1271,0.1275,0.1309,0.1296,0.1301,0.1336,0.1342,0.1349,0.1382,0.1396,0.1405,0.1408,0.1436,0.1443,0.148,0.1519,0.1477,0.1479,0.1554,0.1556,0.1557,0.1606,0,0,0,0,0,0,0.127,0.1274,0.1291,0.1296,0.1302,0.133,0.1341,0.1348,0.1381,0.1387,0.1424,0.1431,0.1438,0.1478,0.1482,0.1521,0.148,0.1552,0.1555,0.1557,0.1603,0.1609,0.1615,0,0,0,0,0,0.1268,0.1276,0.1291,0.1296,0.1319,0.1331,0.1335,0.1363,0.1381,0.1398,0.1425,0.1432,0.1496,0.148,0.1484,0.1524,0.1551,0.1554,0.1557,0.16,0.1608,0.1615,0,0,0,0,0,0,0.1267,0.1282,0.1299,0.1314,0.1334,0.1341,0.136,0.1376,0.1408,0.1425,0.1439,0.1447,0.15,0.1498,0.148,0.1554,0.1528,0.1531,0.156,0.1567,0.1573,0.1576,0.1481,0,0,0,0,0,0.1273,0.1285,0.1302,0.1317,0.1329,0.135,0.1363,0.1384,0.1405,0.1423,0.145,0.1479,0.1507,0.1527,0.1549,0.1579,0.1591,0.161,0.1616,0.1621,0.1627,0.1677,0.1689,0.1567,0.1567,0.1567,0,0,0.1277,0.1287,0.1296,0.1319,0.1337,0.1352,0.1363,0.1392,0.1414,0.1424,0.1475,0.1503,0.152,0.1564,0.1588,0.1572,0.1663,0.1625,0.1629,0.1632,0.1682,0.1693,0.1704,0.1569,0.1569,0.1568,0,0,0.1276,0.1303,0.131,0.1329,0.1361,0.1372,0.1387,0.1416,0.1446,0.1485,0.1508,0.1556,0.1592,0.1617,0.163,0.1678,0.1695,0.1696,0.1729,0.1778,0.1788,0.1798,0.183,0.1842,0.1697,0.1697,0.1697,0,0.1286,0.1295,0.1316,0.133,0.1351,0.1383,0.1401,0.1426,0.1469,0.1502,0.1512,0.16,0.1615,0.1672,0.1694,0.1694,0.1722,0.17,0.1786,0.1796,0.1805,0.1836,0.1848,0.17,0.1699,0.1699,0.1699,0,0.128,0.1304,0.1312,0.1341,0.1366,0.1389,0.1425,0.1466,0.1508,0.1541,0.1624,0.1652,0.171,0.1725,0.1723,0.1801,0.1801,0.1791,0.1768,0.182,0.1849,0.1861,0.1704,0.1703,0.1702,0.1701,0,0,0.1257,0.1301,0.1306,0.1329,0.138,0.1394,0.1445,0.1498,0.1553,0.1607,0.168,0.1732,0.1777,0.1794,0.1816,0.1853,0.1935,0.1855,0.1856,0.1887,0.2048,0.1914,0.1914,0.1952,0.1954,0.1956,0.2044,0,0.1252,0.1276,0.1303,0.1339,0.1358,0.1414,0.1461,0.1522,0.1589,0.167,0.1724,0.1805,0.1794,0.1849,0.1884,0.1934,0.1971,0.1912,0.1993,0.1995,0.187,0.1924,0.1964,0.2053,0.2056,0.2058,0.2059,0,0.1229,0.1254,0.1286,0.1352,0.1369,0.1403,0.1501,0.1551,0.1666,0.173,0.1821,0.1877,0.196,0.194,0.2041,0.2013,0.2037,0.2057,0.2061,0.1926,0.1883,0.199,0.2081,0.2079,0.2078,0.2076,0.2075,0,0.1184,0.1238,0.1266,0.1287,0.1367,0.141,0.1466,0.1579,0.1646,0.179,0.1868,0.1965,0.2039,0.2087,0.2128,0.2109,0.2223,0.2197,0.2093,0.2084,0.2157,0.2146,0.2261,0.2261,0.2261,0.2261,0.226,0,0.1148,0.1172,0.1254,0.1269,0.1329,0.14,0.1492,0.157,0.1704,0.1792,0.1908,0.1984,0.2085,0.2155,0.217,0.2166,0.226,0.2109,0.2101,0.2175,0.2165,0.2166,0.2153,0.2264,0.2263,0.2263,0.2262,0,0.108,0.1133,0.1172,0.1267,0.1306,0.1353,0.1494,0.1562,0.1706,0.1827,0.1883,0.2032,0.2122,0.2191,0.2276,0.2211,0.2227,0.2199,0.228,0.2275,0.2046,0.2036,0.2097,0.2093,0.209,0.2087,0.2084,0,0.1043,0.1053,0.1157,0.1193,0.1239,0.1331,0.14,0.1549,0.1625,0.1831,0.1873,0.2022,0.2101,0.2116,0.2188,0.2214,0.2182,0.2175,0.2095,0.2044,0.2032,0.2027,0.2021,0.2079,0.2078,0.2077,0.2076,0,0.0968,0.1012,0.105,0.1131,0.1201,0.1275,0.1383,0.1432,0.1606,0.1744,0.1833,0.1892,0.1985,0.2035,0.2073,0.2081,0.2172,0.214,0.2146,0.2071,0.2024,0.2014,0.2012,0.2065,0.2067,0.2068,0.2068,0,0.0919,0.0928,0.0989,0.1052,0.1136,0.1195,0.1267,0.1357,0.1452,0.167,0.1687,0.184,0.1962,0.1967,0.1998,0.2002,0.1967,0.1895,0.1913,0.1926,0.1827,0.1739,0.1697,0,0,0,0,0,0.0868,0.0867,0.0908,0.0975,0.1055,0.111,0.1242,0.1321,0.1487,0.1507,0.1597,0.1674,0.1741,0.1811,0.1781,0.192,0.1971,0.1876,0.1896,0.2001,0.2014,0.1911,0,0,0,0,0,0,0.083,0.0859,0.0872,0.0898,0.093,0.1016,0.1098,0.1212,0.1235,0.14,0.1444,0.1561,0.1647,0.1734,0.1742,0.1763,0.174,0.1964,0.196,0.1993,0.2006,0.2016,0.1915,0,0,0,0,0]},{"header":{"parameterUnit":"m.s-1","parameterCategory":2,"la1":30.2991,"la2":30.254,"lo1":-89.0895,"lo2":-89.0444,"dy":0.0017,"dx":0.0017,"nx":28,"ny":28,"refTime":"2024-03-28T03:00:00:Z","depth":"4","parameterNumber":3,"parameterNumberName":"V-component_of_CURRENTS"},"data":[0,0,0,0,0,0,0,0,0,0,0,0,0,0,0,0,0,0,0,0,0,0,0,0,0,0,0,0,0,0,0,0,0,0,0,0,0,0,0,0,0,0,0,0,0,0,0,0,0,0,0,0,0,0,0,0,0,0,-0.0097,-0.0097,0,-0.0121,-0.0121,-0.0122,-0.0142,-0.0143,-0.0143,-0.0143,-0.0219,-0.0221,-0.0222,0,0,0,0,0,0,0,0,0,0,0,0,0,-0.0082,-0.0082,-0.0097,-0.0097,-0.0097,-0.0121,-0.0121,-0.0122,-0.0142,-0.0143,-0.0143,-0.0143,-0.0218,-0.022,-0.0222,0,0,0,0,0,0,0,0,0,0,0,0,0,-0.0095,-0.0082,-0.0097,-0.0111,-0.0112,-0.0121,-0.0121,-0.0122,-0.0142,-0.0143,-0.0143,-0.0143,-0.0218,-0.022,-0.0223,-0.0231,0,0,-0.0231,-0.0232,0,0,0,0,0,0,0,0,-0.0094,-0.0096,-0.0108,-0.011,-0.0112,-0.013,-0.0144,-0.0161,-0.0142,-0.013,-0.0143,-0.0144,-0.0194,-0.0198,-0.0201,-0.0234,-0.0238,-0.0231,-0.0233,-0.0234,-0.0235,0,0,0,0,0,0,0,-0.0093,-0.0095,-0.0106,-0.0109,-0.0111,-0.0121,-0.0123,-0.0147,-0.016,-0.0131,-0.0133,-0.0137,-0.0195,-0.0198,-0.0203,-0.0239,-0.0231,-0.0233,-0.0235,-0.0236,-0.0296,-0.0297,0,0,0,0,0,0,-0.009,-0.0094,-0.0105,-0.0107,-0.0104,-0.0121,-0.0123,-0.0123,-0.0159,-0.0164,-0.0136,-0.0137,-0.0193,-0.02,-0.0206,-0.0217,-0.0234,-0.0236,-0.0238,-0.0296,-0.0296,-0.0297,0,0,0,0,0,0,-0.009,-0.0091,-0.0104,-0.0101,-0.0104,-0.0121,-0.012,-0.0123,-0.0129,-0.0162,-0.0168,-0.0139,-0.0194,-0.0202,-0.0226,-0.022,-0.0237,-0.024,-0.0296,-0.0296,-0.0297,-0.024,0,0,0,0,0,0,-0.0089,-0.009,-0.0089,-0.0101,-0.0104,-0.0105,-0.012,-0.0123,-0.0131,-0.0133,-0.0167,-0.0174,-0.0195,-0.0222,-0.0229,-0.0224,-0.0242,-0.0296,-0.0296,-0.0296,-0.0242,-0.0238,-0.0235,0,0,0,0,0,-0.0088,-0.0081,-0.0089,-0.009,-0.0102,-0.0105,-0.0107,-0.012,-0.0131,-0.0128,-0.0153,-0.0173,-0.0227,-0.0224,-0.0232,-0.0228,-0.0296,-0.0296,-0.0296,-0.0244,-0.0239,-0.0235,0,0,0,0,0,0,-0.007,-0.0082,-0.0092,-0.0088,-0.0096,-0.0108,-0.0108,-0.0119,-0.0136,-0.014,-0.0173,-0.0182,-0.0201,-0.0225,-0.022,-0.0247,-0.0265,-0.0267,-0.0222,-0.0219,-0.0215,-0.0192,-0.0244,0,0,0,0,0,-0.0066,-0.0066,-0.0079,-0.0076,-0.0079,-0.0095,-0.0099,-0.0107,-0.0123,-0.0131,-0.0155,-0.0183,-0.0207,-0.022,-0.0245,-0.0259,-0.0284,-0.0263,-0.0259,-0.0256,-0.0243,-0.0277,-0.0275,-0.0297,-0.0297,-0.0297,0,0,-0.0059,-0.0065,-0.0066,-0.0072,-0.008,-0.0072,-0.0098,-0.0099,-0.0091,-0.0137,-0.0139,-0.0174,-0.0209,-0.0222,-0.0233,-0.0241,-0.0265,-0.0256,-0.0253,-0.0242,-0.0277,-0.0275,-0.0273,-0.0297,-0.0297,-0.0297,0,0,-0.0034,-0.0049,-0.0036,-0.0039,-0.0048,-0.0057,-0.0057,-0.007,-0.0077,-0.0088,-0.0118,-0.0145,-0.0181,-0.02,-0.0216,-0.021,-0.0247,-0.0224,-0.0184,-0.0218,-0.0216,-0.0214,-0.0248,-0.025,-0.022,-0.022,-0.0219,0,-0.0024,-0.0009,-0.0033,-0.0018,-0.0013,-0.0047,-0.0025,-0.0036,-0.0056,-0.0058,-0.0082,-0.0133,-0.0167,-0.0178,-0.0176,-0.02,-0.0227,-0.0195,-0.0212,-0.0211,-0.021,-0.0245,-0.0248,-0.0217,-0.0217,-0.0217,-0.0218,0,0.0012,0.0026,0.0034,0.0041,0.0042,0.0052,0.0037,0.0033,0.0012,-0.0003,-0.0026,-0.0076,-0.0103,-0.0123,-0.0148,-0.0159,-0.0182,-0.0204,-0.0217,-0.0205,-0.0243,-0.0247,-0.0213,-0.0214,-0.0215,-0.0215,0,0,0.0035,0.0057,0.006,0.0079,0.0076,0.0083,0.0093,0.0095,0.0101,0.0063,0.0065,0.0015,-0.002,-0.004,-0.0082,-0.0113,-0.014,-0.0151,-0.0154,-0.0175,-0.0216,-0.0223,-0.0229,-0.0166,-0.0166,-0.0167,-0.0245,0,0.0073,0.012,0.0118,0.0162,0.0185,0.0166,0.0181,0.0174,0.015,0.0139,0.0083,0.0061,0.0014,-0.0006,-0.0041,-0.0119,-0.0147,-0.0116,-0.0232,-0.0235,-0.0237,-0.0233,-0.0167,-0.0248,-0.0249,-0.025,-0.025,0,0.011,0.0139,0.0193,0.023,0.0238,0.0256,0.027,0.0279,0.0252,0.0233,0.0197,0.0144,0.0095,0.0048,-0.0062,-0.0042,-0.0115,-0.0178,-0.0183,-0.0208,-0.025,-0.0265,-0.0258,-0.0258,-0.0257,-0.0257,-0.0256,0,0.014,0.019,0.0238,0.025,0.0282,0.0303,0.0316,0.0307,0.0317,0.0288,0.0277,0.0209,0.0163,0.0071,-0.0062,-0.0063,-0.0193,-0.0212,-0.0285,-0.0287,-0.0281,-0.0282,-0.0279,-0.0279,-0.0278,-0.0278,-0.0278,0,0.0178,0.0215,0.0257,0.0282,0.0336,0.0344,0.0385,0.0384,0.0381,0.0389,0.0326,0.0299,0.0164,0.0068,-0.0042,-0.0179,-0.0179,-0.0272,-0.0304,-0.0258,-0.0255,-0.0285,-0.0285,-0.0281,-0.028,-0.028,-0.0279,0,0.0194,0.0225,0.028,0.0331,0.0352,0.0385,0.0433,0.045,0.0449,0.0453,0.0445,0.0358,0.0232,0.0092,-0.0074,-0.0156,-0.0284,-0.0332,-0.0271,-0.03,-0.036,-0.0356,-0.0409,-0.041,-0.0411,-0.0411,-0.0412,0,0.0204,0.0235,0.0308,0.0338,0.0362,0.0417,0.0449,0.0478,0.0496,0.0482,0.0478,0.037,0.0294,0.0064,-0.0088,-0.0289,-0.0318,-0.0376,-0.0361,-0.0345,-0.0372,-0.0366,-0.0362,-0.0413,-0.0413,-0.0413,-0.0414,0,0.0211,0.0235,0.0273,0.034,0.0386,0.0446,0.0495,0.0522,0.0546,0.0551,0.0503,0.0388,0.0244,0.0064,-0.0096,-0.0241,-0.0332,-0.0384,-0.0384,-0.0369,-0.0351,-0.0375,-0.0369,-0.0416,-0.0416,-0.0415,-0.0415,0,0.0196,0.0217,0.0263,0.0321,0.0379,0.0435,0.0484,0.0511,0.054,0.0543,0.0521,0.0379,0.0302,0.0087,-0.0063,-0.0204,-0.0236,-0.0269,-0.0275,-0.0274,-0.0214,-0.0169,-0.0199,0,0,0,0,0,0.0172,0.0188,0.0238,0.0297,0.0355,0.0397,0.0483,0.0528,0.0572,0.0548,0.0544,0.0415,0.0201,0.0105,-0.0038,-0.0096,-0.0278,-0.0268,-0.0323,-0.043,-0.0427,-0.038,0,0,0,0,0,0,0.0149,0.0183,0.0216,0.0256,0.0294,0.036,0.0422,0.0469,0.0471,0.0499,0.039,0.0368,0.0155,0.0265,-0.0053,-0.0095,-0.0147,-0.036,-0.0363,-0.0431,-0.0429,-0.0426,-0.0377,0,0,0,0,0]}]]